1513537201.0,31540,7.06,72730.8,-17.75,-44.41,-42.37,0,*60
1513537202.29,31541,7.06,72726.0,-17.75,-44.47,-42.45,0,*62
1513537203.52,31542,7.06,72728.0,-17.77,-44.53,-42.51,0,*63
1513537204.76,31543,7.06,72730.3,-17.77,-44.47,-42.51,0,*67
1513537206.01,31544,7.06,72732.3,-17.77,-44.53,-42.69,0,*6E
1513537207.28,31545,7.06,72734.8,-17.77,-44.33,-42.45,0,*67
1513537208.55,31546,7.06,72736.3,-17.77,-44.33,-42.31,0,*67
1513537209.77,31547,7.06,72734.5,-17.77,-44.07,-41.99,0,*60
1513537210.99,31548,7.0,72732.0,-17.77,-43.95,-41.87,0,*6C
1513537212.25,31549,7.0,72734.8,-17.77,-44.27,-42.31,0,*6D
1513537213.52,31550,7.0,72730.5,-17.77,-43.67,-41.81,0,*6E
1513537214.81,31551,7.06,72734.8,-17.75,-43.67,-41.81,0,*6D
1513537216.09,31552,7.0,72732.3,-17.77,-43.67,-41.67,0,*64
1513537217.32,31553,7.06,72734.0,-17.77,-43.61,-41.41,0,*67
1513537218.58,31554,7.06,72732.8,-17.77,-43.81,-41.81,0,*62
1513537219.84,31555,7.0,72732.5,-17.75,-43.61,-41.61,0,*61
1513537221.09,31556,7.0,72734.8,-17.75,-43.61,-41.99,0,*65
1513537222.39,31557,7.0,72734.5,-17.75,-43.81,-41.81,0,*63
1513537223.66,31558,7.0,72730.5,-17.75,-43.61,-41.93,0,*61
1513537224.94,31559,7.06,72734.5,-17.75,-44.01,-42.25,0,*6F
1513537226.18,31560,7.06,72732.8,-17.75,-43.87,-42.13,0,*69
1513537227.45,31561,7.0,72732.3,-17.75,-43.87,-42.19,0,*62
1513537228.7,31562,7.06,72734.5,-17.77,-44.47,-42.51,0,*64
1513537229.96,31563,7.0,72734.5,-17.75,-44.27,-42.63,0,*60
1513537231.23,31564,7.0,72734.0,-17.75,-44.41,-42.45,0,*63
1513537232.49,31565,7.0,72732.5,-17.75,-44.27,-42.25,0,*64
1513537233.73,31566,7.0,72734.5,-17.75,-44.41,-42.37,0,*64
1513537235.0,31567,7.0,72728.0,-17.77,-44.47,-42.45,0,*64
1513537236.25,31568,7.06,72730.5,-17.75,-43.87,-41.73,0,*64
1513537237.52,31569,7.0,72730.0,-17.75,-44.07,-42.19,0,*65
1513537238.78,31570,7.0,72732.0,-17.75,-44.27,-42.37,0,*63
1513537240.05,31571,7.0,72734.3,-17.77,-44.73,-42.69,0,*6A
1513537241.35,31572,7.06,72732.5,-17.75,-44.47,-42.57,0,*61
1513537242.62,31573,7.06,72734.0,-17.75,-44.47,-42.37,0,*66
1513537243.84,31574,7.0,72728.0,-17.77,-44.53,-42.51,0,*66
1513537245.1,31575,7.0,72728.8,-17.75,-44.61,-42.75,0,*62
1513537246.36,31576,7.06,72732.0,-17.75,-44.27,-42.25,0,*66
1513537247.63,31577,7.0,72730.8,-17.75,-44.61,-42.45,0,*63
1513537248.92,31578,7.06,72732.8,-17.75,-44.67,-42.57,0,*69
1513537250.18,31579,7.0,72734.3,-17.75,-44.61,-42.63,0,*69
1513537251.43,31580,7.0,72732.8,-17.77,-44.67,-42.63,0,*6B
1513537252.73,31581,7.0,72732.8,-17.75,-44.67,-42.57,0,*6F
1513537254.0,31582,7.0,72730.8,-17.77,-44.47,-42.31,0,*6C
1513537255.24,31583,7.06,72730.0,-17.77,-43.81,-41.61,0,*66
1513537256.55,31584,7.0,72730.3,-17.75,-44.01,-42.19,0,*60
1513537257.8,31585,7.0,72728.5,-17.77,-44.27,-42.31,0,*6D
1513537259.07,31586,7.0,72730.8,-17.75,-44.41,-42.57,0,*6C
1513537260.33,31587,7.0,72730.5,-17.75,-44.61,-42.63,0,*68
1513537261.55,31588,7.0,72730.3,-17.77,-44.53,-42.63,0,*64
1513537262.83,31589,7.06,72730.3,-17.77,-44.33,-42.31,0,*64
1513537264.08,31590,7.0,72728.8,-17.75,-44.27,-42.25,0,*6E
1513537265.36,31591,7.0,72730.0,-17.77,-44.33,-42.31,0,*6D
1513537266.62,31592,7.06,72732.0,-17.75,-43.87,-41.93,0,*6F
1513537267.93,31593,7.0,72728.5,-17.75,-44.01,-42.19,0,*66
1513537269.2,31594,7.0,72728.0,-17.75,-44.01,-42.13,0,*6B
1513537270.48,31595,7.06,72732.5,-17.75,-44.07,-42.31,0,*6C
1513537271.73,31596,7.06,72730.5,-17.75,-44.07,-42.25,0,*6A
1513537272.99,31597,7.0,72728.8,-17.75,-44.27,-42.37,0,*6A
1513537274.24,31598,7.06,72732.3,-17.75,-44.27,-42.25,0,*66
1513537275.49,31599,7.0,72732.0,-17.75,-44.41,-42.37,0,*64
1513537276.76,31600,7.0,72734.5,-17.77,-44.67,-42.69,0,*6A
1513537278.05,31601,7.06,72732.3,-17.75,-44.47,-42.57,0,*66
1513537279.33,31602,7.06,72732.0,-17.77,-44.33,-42.31,0,*64
1513537280.63,31603,7.0,72732.0,-17.75,-44.47,-42.19,0,*6E
1513537281.93,31604,7.06,72734.0,-17.75,-42.95,-39.97,0,*6A
1513537283.21,31605,7.0,72730.3,-17.75,-38.49,-38.17,0,*6E
1513537284.49,31606,7.06,72728.0,-17.75,-36.49,-36.55,0,*6B
1513537285.76,31607,7.06,72730.3,-17.75,-35.01,-35.77,0,*66
1513537287.05,31608,7.0,72730.0,-17.75,-33.89,-35.07,0,*68
1513537288.3,31609,7.06,72732.3,-17.75,-33.03,-34.25,0,*6A
1513537289.55,31610,7.06,72730.5,-17.75,-32.39,-36.01,0,*6E
1513537290.78,31611,7.06,72732.3,-17.73,-33.55,-35.89,0,*61
1513537292.03,31612,7.0,72728.0,-17.73,-33.77,-33.37,0,*61
1513537293.3,31613,7.06,72728.8,-17.73,-32.97,-31.95,0,*65
1513537294.57,31614,7.06,72730.0,-17.73,-33.31,-32.45,0,*61
1513537295.84,31615,7.06,72730.3,-17.71,-34.13,-33.61,0,*62
1513537297.11,31616,7.06,72732.5,-17.73,-35.53,-34.65,0,*65
1513537298.41,31617,7.06,72732.5,-17.71,-36.91,-35.41,0,*6C
1513537299.65,31618,7.0,72730.0,-17.71,-38.61,-34.89,0,*67
1513537300.87,31619,7.0,72734.0,-17.73,-38.35,-34.07,0,*63
1513537302.16,31620,7.0,72734.8,-17.71,-37.51,-33.89,0,*67
1513537303.45,31621,7.06,72734.5,-17.71,-37.81,-35.01,0,*6D
1513537304.74,31622,7.06,72732.8,-17.71,-38.23,-36.13,0,*69
1513537306.0,31623,7.06,72736.3,-17.71,-38.85,-38.43,0,*6F
1513537307.25,31624,7.0,72730.3,-17.67,-39.91,-40.65,0,*60
1513537308.51,31625,7.0,72728.8,-17.67,-41.49,-41.93,0,*63
1513537309.78,31626,7.06,72734.8,-17.67,-42.69,-42.51,0,*6C
1513537311.06,31627,7.06,72734.8,-17.71,-43.49,-42.95,0,*61
1513537312.37,31628,7.06,72738.0,-17.71,-44.01,-42.95,0,*65
1513537313.64,31629,7.06,72734.8,-17.71,-44.21,-43.01,0,*6A
1513537314.92,31630,7.06,72738.0,-17.71,-44.27,-43.21,0,*66
1513537316.19,31631,7.06,72738.0,-17.71,-44.47,-43.15,0,*66
1513537317.44,31632,7.06,72736.3,-17.71,-44.41,-43.01,0,*66
1513537318.69,31633,7.06,72734.5,-17.67,-44.61,-43.15,0,*67
1513537319.99,31634,7.06,72736.8,-17.71,-44.47,-42.95,0,*6A
1513537321.23,31635,7.0,72734.5,-17.71,-43.87,-42.37,0,*68
1513537322.53,31636,7.06,72736.5,-17.71,-44.21,-42.83,0,*6F
1513537323.83,31637,7.0,72734.5,-17.71,-44.21,-42.95,0,*69
1513537325.13,31638,7.06,72738.8,-17.71,-44.47,-42.95,0,*66
1513537326.38,31639,7.06,72736.8,-17.71,-44.41,-43.01,0,*6D
1513537327.66,31640,7.0,72736.8,-17.67,-44.53,-42.95,0,*6B
1513537328.92,31641,7.0,72738.5,-17.67,-44.13,-42.37,0,*66
1513537330.2,31642,7.06,72738.5,-17.67,-43.95,-42.31,0,*6A
1513537331.47,31643,7.06,72738.8,-17.67,-44.01,-42.37,0,*67
1513537332.74,31644,7.0,72732.3,-17.67,-44.41,-42.57,0,*62
1513537334.04,31645,7.0,72734.0,-17.67,-44.13,-42.19,0,*6E
1513537335.35,31646,7.0,72732.0,-17.71,-42.95,-40.97,0,*66
1513537336.65,31647,7.06,72738.8,-17.71,-41.35,-38.23,0,*6E
1513537337.92,31648,7.0,72734.0,-17.71,-37.33,-33.73,0,*68
1513537339.19,31649,7.0,72734.3,-17.71,-33.95,-32.63,0,*61
1513537340.46,31650,7.06,72738.8,-17.71,-33.55,-32.63,0,*65
1513537341.7,31651,7.0,72738.8,-17.67,-33.15,-31.67,0,*60
1513537342.94,31652,7.0,72738.5,-17.65,-32.97,-31.67,0,*6A
1513537344.2,31653,7.06,72742.3,-17.67,-33.15,-31.91,0,*6B
1513537345.45,31654,7.06,72740.8,-17.63,-33.03,-32.35,0,*62
1513537346.67,31655,7.06,72740.5,-17.65,-33.55,-35.47,0,*64
1513537347.93,31656,7.06,72742.0,-17.67,-35.17,-38.11,0,*6B
1513537349.15,31657,7.06,72742.0,-17.65,-36.67,-39.35,0,*6B
1513537350.39,31658,7.0,72740.3,-17.65,-37.57,-38.91,0,*69
1513537351.66,31659,7.0,72742.5,-17.67,-38.55,-39.15,0,*6A
1513537352.94,31660,7.0,72742.5,-17.65,-38.79,-38.29,0,*62
1513537354.21,31661,7.06,72744.5,-17.63,-39.65,-40.09,0,*64
1513537355.49,31662,7.0,72742.8,-17.63,-41.49,-41.67,0,*6F
1513537356.78,31663,7.0,72740.8,-17.63,-42.31,-42.05,0,*65
1513537358.05,31664,7.0,72736.3,-17.63,-43.09,-42.25,0,*6A
1513537359.34,31665,7.0,72732.5,-17.63,-43.29,-42.45,0,*6F
1513537360.61,31666,7.06,72734.8,-17.63,-43.55,-42.51,0,*62
1513537361.88,31667,7.0,72734.8,-17.63,-43.67,-42.63,0,*63
1513537363.14,31668,7.0,72734.3,-17.63,-43.87,-42.45,0,*66
1513537364.39,31669,7.0,72732.5,-17.63,-43.87,-42.51,0,*62
1513537365.66,31670,7.06,72736.0,-17.63,-43.29,-41.87,0,*66
1513537366.91,31671,7.0,72732.3,-17.63,-43.01,-41.03,0,*61
1513537368.19,31672,7.06,72736.5,-17.63,-42.45,-41.03,0,*63
1513537369.46,31673,7.06,72736.5,-17.63,-42.13,-41.23,0,*63
1513537370.74,31674,7.0,72738.3,-17.63,-41.67,-40.73,0,*60
1513537372.0,31675,7.0,72738.8,-17.63,-41.23,-40.03,0,*66
1513537373.25,31676,7.06,72746.8,-17.63,-40.47,-39.09,0,*62
1513537374.52,31677,7.06,72744.5,-17.63,-39.91,-39.23,0,*6E
1513537375.76,31678,7.0,72740.3,-17.63,-39.85,-39.85,0,*68
1513537377.03,31679,7.06,72746.8,-17.63,-39.09,-39.53,0,*66
1513537378.27,31680,7.0,72740.0,-17.63,-39.47,-40.47,0,*61
1513537379.54,31681,7.06,72740.8,-17.63,-40.09,-40.73,0,*63
1513537380.84,31682,7.0,72742.3,-17.63,-39.71,-39.03,0,*68
1513537382.11,31683,7.0,72738.0,-17.63,-37.93,-37.33,0,*66
1513537383.4,31684,7.06,72740.5,-17.63,-36.61,-38.67,0,*63
1513537384.64,31685,7.06,72736.3,-17.63,-36.43,-37.57,0,*6E
1513537385.89,31686,7.0,72736.0,-17.63,-37.03,-39.65,0,*67
1513537387.16,31687,7.0,72738.3,-17.63,-37.75,-39.71,0,*62
1513537388.4,31688,7.0,72740.3,-17.63,-39.09,-40.65,0,*63
1513537389.71,31689,7.0,72742.5,-17.63,-39.71,-40.85,0,*63
1513537390.95,31690,7.0,72742.0,-17.63,-41.29,-41.41,0,*60
1513537392.22,31691,7.0,72744.0,-17.63,-42.25,-41.81,0,*62
1513537393.47,31692,7.0,72742.3,-17.63,-42.13,-39.09,0,*6B
1513537394.75,31693,7.0,72740.5,-17.63,-40.29,-35.07,0,*63
1513537396.0,31694,7.0,72740.8,-17.63,-37.03,-32.35,0,*6A
1513537397.27,31695,7.06,72744.3,-17.63,-34.59,-29.35,0,*6D
1513537398.55,31696,7.0,72740.0,-17.63,-30.89,-27.29,0,*64
1513537399.82,31697,7.06,72742.5,-17.63,-28.63,-27.77,0,*63
1513537401.08,31698,7.0,72740.3,-17.63,-28.63,-28.69,0,*6C
1513537402.33,31699,7.06,72740.0,-17.63,-30.27,-28.69,0,*64
1513537403.59,31700,7.0,72738.3,-17.63,-31.05,-27.45,0,*65
1513537404.86,31701,7.0,72740.8,-17.63,-30.11,-26.29,0,*6B
1513537406.11,31702,7.0,72736.5,-17.61,-28.91,-25.19,0,*6B
1513537407.33,31703,7.0,72742.8,-17.61,-27.67,-24.35,0,*63
1513537408.57,31704,7.06,72736.3,-17.61,-25.97,-23.39,0,*62
1513537409.82,31705,7.0,72738.5,-17.61,-24.05,-23.23,0,*62
1513537411.06,31706,7.06,72738.3,-17.57,-23.13,-23.29,0,*6E
1513537412.31,31707,7.0,72738.3,-17.57,-22.47,-23.43,0,*63
1513537413.52,31708,7.0,72732.5,-17.57,-22.03,-23.79,0,*65
1513537414.74,31709,7.0,72736.3,-17.57,-22.57,-24.97,0,*62
1513537415.99,31710,7.0,72738.8,-17.57,-23.19,-25.39,0,*64
1513537417.28,31711,7.0,72736.0,-17.55,-23.53,-26.93,0,*6A
1513537418.52,31712,7.0,72736.8,-17.53,-24.61,-28.91,0,*65
1513537419.8,31713,7.0,72732.5,-17.53,-25.71,-30.77,0,*65
1513537421.05,31714,7.0,72734.3,-17.53,-27.19,-32.29,0,*67
1513537422.3,31715,7.0,72732.5,-17.53,-29.57,-34.01,0,*6E
1513537423.53,31716,7.0,72732.3,-17.53,-31.01,-34.83,0,*6D
1513537424.75,31717,7.0,72734.0,-17.53,-33.21,-36.01,0,*64
1513537425.99,31718,7.0,72734.5,-17.53,-34.41,-37.81,0,*63
1513537427.25,31719,7.0,72734.0,-17.53,-37.63,-39.59,0,*6A
1513537428.5,31720,7.0,72734.8,-17.53,-37.21,-34.77,0,*67
1513537429.76,31721,7.0,72734.8,-17.53,-34.35,-32.63,0,*63
1513537431.0,31722,7.06,72732.8,-17.53,-32.79,-32.57,0,*69
1513537432.24,31723,7.0,72728.0,-17.53,-31.67,-30.61,0,*63
1513537433.49,31724,7.0,72724.8,-17.49,-29.57,-28.47,0,*68
1513537434.75,31725,7.0,72724.8,-17.51,-28.31,-27.61,0,*6A
1513537436.05,31726,7.06,72730.5,-17.51,-27.35,-27.61,0,*62
1513537437.29,31727,7.0,72728.8,-17.49,-26.97,-28.37,0,*6F
1513537438.55,31728,7.0,72734.5,-17.49,-27.19,-29.39,0,*68
1513537439.82,31729,7.0,72734.3,-17.49,-28.05,-30.05,0,*6C
1513537441.1,31730,7.06,72732.3,-17.51,-28.47,-29.39,0,*6C
1513537442.36,31731,7.06,72734.3,-17.49,-28.47,-28.91,0,*67
1513537443.61,31732,7.06,72736.3,-17.47,-27.99,-28.15,0,*6A
1513537444.84,31733,7.0,72728.5,-17.47,-27.35,-27.13,0,*64
1513537446.09,31734,7.0,72728.8,-17.47,-26.49,-26.33,0,*6A
1513537447.31,31735,7.06,72734.5,-17.47,-26.49,-26.87,0,*64
1513537448.57,31736,7.0,72730.5,-17.47,-26.97,-28.47,0,*66
1513537449.79,31737,7.0,72730.3,-17.47,-28.53,-30.23,0,*6A
1513537451.1,31738,7.0,72728.5,-17.45,-29.35,-30.17,0,*61
1513537452.31,31739,7.06,72730.3,-17.47,-29.67,-29.61,0,*6C
1513537453.58,31740,7.0,72730.8,-17.45,-29.83,-28.47,0,*6F
1513537454.87,31741,7.0,72728.3,-17.45,-28.47,-25.97,0,*67
1513537456.14,31742,7.06,72732.5,-17.45,-27.23,-24.97,0,*68
1513537457.37,31743,7.0,72730.0,-17.47,-26.13,-24.35,0,*61
1513537458.65,31744,7.0,72732.0,-17.45,-25.45,-24.15,0,*66
1513537459.89,31745,7.06,72728.0,-17.43,-24.97,-23.99,0,*6C
1513537461.16,31746,7.0,72728.5,-17.43,-24.67,-24.15,0,*63
1513537462.43,31747,7.0,72728.3,-17.39,-24.71,-24.25,0,*6B
1513537463.65,31748,7.0,72730.8,-17.39,-24.77,-24.47,0,*66
1513537464.93,31749,7.06,72732.3,-17.39,-24.25,-23.23,0,*65
1513537466.2,31750,7.06,72732.8,-17.37,-24.25,-22.97,0,*6D
1513537467.44,31751,7.0,72728.5,-17.39,-24.21,-22.37,0,*6C
1513537468.66,31752,7.06,72728.8,-17.39,-23.59,-21.73,0,*64
1513537469.9,31753,7.06,72730.0,-17.39,-22.47,-21.17,0,*69
1513537471.19,31754,7.0,72728.8,-17.37,-21.83,-21.83,0,*66
1513537472.43,31755,7.0,72730.5,-17.37,-22.03,-22.11,0,*64
1513537473.66,31756,7.0,72732.5,-17.37,-22.03,-22.93,0,*6D
1513537474.87,31757,7.0,72730.0,-17.35,-22.63,-23.89,0,*62
1513537476.09,31758,7.06,72734.3,-17.35,-23.43,-24.57,0,*6A
1513537477.33,31759,7.0,72730.8,-17.35,-23.53,-24.35,0,*6E
1513537478.54,31760,7.0,72726.8,-17.35,-23.09,-24.05,0,*68
1513537479.81,31761,7.0,72728.5,-17.33,-23.03,-24.31,0,*62
1513537481.05,31762,7.0,72730.3,-17.33,-24.31,-26.49,0,*6A
1513537482.3,31763,7.0,72726.5,-17.33,-26.87,-28.75,0,*65
1513537483.54,31764,7.0,72732.0,-17.31,-28.69,-29.01,0,*6C
1513537484.8,31765,7.0,72732.0,-17.33,-28.47,-27.29,0,*67
1513537486.05,31766,7.06,72734.3,-17.31,-27.77,-27.99,0,*61
1513537487.27,31767,7.0,72732.0,-17.31,-28.53,-31.29,0,*65
1513537488.54,31768,7.0,72728.0,-17.31,-29.89,-31.11,0,*67
1513537489.79,31769,7.0,72730.0,-17.31,-30.55,-29.13,0,*64
1513537491.05,31770,7.0,72730.0,-17.31,-30.05,-27.23,0,*64
1513537492.27,31771,7.0,72728.8,-17.31,-28.15,-25.09,0,*67
1513537493.56,31772,7.0,72728.8,-17.29,-26.29,-23.53,0,*65
1513537494.81,31773,7.0,72728.5,-17.29,-24.51,-22.53,0,*68
1513537496.07,31774,7.0,72732.0,-17.29,-23.23,-21.77,0,*68
1513537497.31,31775,7.0,72728.8,-17.27,-22.31,-21.09,0,*6C
1513537498.53,31776,7.0,72732.5,-17.27,-21.73,-20.93,0,*68
1513537499.75,31777,7.06,72732.8,-17.27,-21.43,-20.63,0,*65
1513537501.01,31778,7.0,72730.0,-17.27,-21.27,-20.89,0,*6C
1513537502.3,31779,7.0,72728.0,-17.25,-21.87,-21.53,0,*63
1513537503.59,31780,7.0,72728.3,-17.25,-22.47,-22.77,0,*6F
1513537504.88,31781,7.0,72730.5,-17.25,-23.49,-23.29,0,*6B
1513537506.14,31782,7.06,72730.5,-17.25,-22.77,-22.67,0,*6F
1513537507.39,31783,7.0,72730.0,-17.23,-22.77,-24.31,0,*6D
1513537508.68,31784,7.06,72730.3,-17.25,-23.95,-25.45,0,*63
1513537509.92,31785,7.0,72724.8,-17.25,-24.57,-25.09,0,*63
1513537511.2,31786,7.0,72730.8,-17.23,-24.21,-25.55,0,*6E
1513537512.49,31787,7.0,72730.5,-17.25,-24.21,-26.17,0,*6C
1513537513.74,31788,7.0,72734.5,-17.23,-24.77,-26.33,0,*60
1513537514.97,31789,7.0,72728.3,-17.23,-24.93,-28.21,0,*66
1513537516.21,31790,7.0,72724.0,-17.17,-26.45,-29.45,0,*63
1513537517.45,31791,7.0,72726.0,-17.21,-26.49,-27.55,0,*64
1513537518.74,31792,7.0,72724.5,-17.21,-24.87,-24.83,0,*6F
1513537520.03,31793,7.0,72730.3,-17.21,-23.85,-23.23,0,*66
1513537521.26,31794,7.0,72730.0,-17.21,-23.39,-22.57,0,*64
1513537522.51,31795,7.0,72728.3,-17.21,-23.43,-22.63,0,*6F
1513537523.77,31796,7.0,72724.3,-17.17,-23.99,-23.39,0,*60
1513537525.05,31797,7.06,72730.5,-17.17,-24.51,-24.21,0,*6C
1513537526.28,31798,7.0,72730.0,-17.17,-24.97,-24.31,0,*68
1513537527.58,31799,7.06,72732.3,-17.17,-24.21,-25.29,0,*6C
1513537528.84,31800,7.0,72726.3,-17.17,-25.29,-26.45,0,*63
1513537530.08,31801,7.0,72728.5,-17.13,-25.61,-25.45,0,*69
1513537531.33,31802,7.0,72728.3,-17.13,-25.75,-24.31,0,*6D
1513537532.57,31803,7.06,72728.0,-17.17,-24.97,-22.87,0,*6E
1513537533.83,31804,7.06,72730.8,-17.17,-23.85,-21.73,0,*65
1513537535.07,31805,7.0,72730.0,-17.13,-22.41,-20.79,0,*62
1513537536.35,31806,7.0,72730.3,-17.13,-21.87,-20.49,0,*6B
1513537537.57,31807,7.0,72726.8,-17.13,-21.09,-20.05,0,*64
1513537538.78,31808,7.06,72732.8,-17.13,-20.69,-19.91,0,*6B
1513537540.05,31809,7.0,72728.0,-17.11,-20.19,-19.95,0,*6B
1513537541.32,31810,7.0,72726.3,-17.11,-20.19,-20.29,0,*6E
1513537542.58,31811,7.0,72724.8,-17.11,-20.29,-20.49,0,*6A
1513537543.87,31812,7.0,72728.5,-17.11,-20.19,-20.35,0,*61
1513537545.11,31813,7.0,72726.3,-17.13,-20.09,-20.35,0,*63
1513537546.36,31814,7.0,72730.8,-17.11,-19.95,-20.63,0,*6A
1513537547.57,31815,7.0,72730.8,-17.09,-20.05,-22.53,0,*60
1513537548.84,31816,7.0,72728.5,-17.07,-20.73,-24.41,0,*69
1513537550.05,31817,7.0,72730.5,-17.09,-22.03,-26.07,0,*63
1513537551.3,31818,7.06,72730.8,-17.07,-23.09,-27.89,0,*6E
1513537552.55,31819,7.0,72730.3,-17.07,-24.51,-29.61,0,*6D
1513537553.83,31820,7.0,72726.5,-17.07,-26.49,-30.39,0,*69
1513537555.08,31821,7.0,72728.3,-17.07,-27.55,-30.83,0,*65
1513537556.35,31822,7.0,72730.3,-17.07,-28.53,-30.95,0,*68
1513537557.59,31823,7.0,72730.5,-17.09,-28.59,-29.79,0,*67
1513537558.83,31824,7.0,72724.5,-17.09,-27.77,-31.73,0,*60
1513537560.1,31825,7.0,72724.3,-17.09,-28.63,-33.73,0,*69
1513537561.37,31826,7.0,72724.8,-17.09,-28.75,-32.45,0,*69
1513537562.64,31827,7.0,72726.0,-17.07,-28.75,-32.01,0,*66
1513537563.91,31828,7.0,72724.5,-17.07,-29.23,-31.91,0,*61
1513537565.19,31829,7.0,72724.5,-17.09,-29.51,-32.79,0,*6E
1513537566.45,31830,7.0,72728.0,-17.07,-30.39,-34.25,0,*61
1513537567.69,31831,7.0,72726.5,-17.07,-31.01,-35.17,0,*6A
1513537568.95,31832,7.0,72726.3,-17.09,-31.51,-36.13,0,*65
1513537570.23,31833,7.0,72726.5,-17.09,-32.79,-37.81,0,*67
1513537571.5,31834,7.0,72726.0,-17.07,-34.25,-38.91,0,*6F
1513537572.74,31835,7.0,72726.8,-17.09,-35.35,-38.85,0,*65
1513537574.0,31836,7.0,72724.8,-17.07,-35.35,-36.19,0,*63
1513537575.27,31837,7.0,72722.3,-17.09,-33.89,-31.57,0,*60
1513537576.52,31838,7.0,72720.0,-17.07,-30.67,-27.67,0,*66
1513537577.76,31839,7.0,72722.8,-17.09,-28.05,-26.45,0,*65
1513537578.99,31840,7.0,72722.3,-17.09,-25.87,-25.39,0,*64
1513537580.24,31841,7.06,72724.8,-17.09,-24.25,-24.47,0,*64
1513537581.51,31842,7.0,72722.8,-17.07,-22.97,-23.99,0,*62
1513537582.75,31843,7.0,72722.5,-17.09,-22.31,-23.89,0,*60
1513537584.02,31844,7.0,72720.5,-17.07,-22.17,-24.05,0,*6E
1513537585.27,31845,7.0,72724.3,-17.07,-22.03,-25.39,0,*64
1513537586.54,31846,7.0,72724.5,-17.07,-23.23,-27.89,0,*6D
1513537587.78,31847,7.0,72726.8,-17.05,-25.03,-30.23,0,*6C
1513537589.05,31848,7.0,72726.0,-17.07,-26.97,-31.01,0,*6E
1513537590.29,31849,7.0,72722.5,-17.07,-29.79,-34.25,0,*63
1513537591.51,31850,7.0,72722.0,-17.05,-32.57,-36.19,0,*62
1513537592.75,31851,7.0,72720.0,-17.05,-33.43,-37.03,0,*6D
1513537594.03,31852,7.0,72722.0,-17.05,-34.95,-37.51,0,*65
1513537595.29,31853,7.0,72720.8,-17.07,-34.77,-36.67,0,*6E
1513537596.56,31854,7.0,72722.0,-17.07,-34.35,-37.03,0,*6C
1513537597.82,31855,7.0,72726.3,-17.09,-35.41,-37.21,0,*61
1513537599.07,31856,7.0,72724.3,-17.07,-36.31,-38.17,0,*62
1513537600.34,31857,7.0,72724.5,-17.07,-36.19,-36.61,0,*66
1513537601.61,31858,7.0,72726.5,-17.07,-34.53,-34.41,0,*65
1513537602.82,31859,7.0,72728.0,-17.09,-33.15,-34.13,0,*68
1513537604.12,31860,7.0,72724.8,-17.07,-33.09,-35.35,0,*64
1513537605.38,31861,7.0,72728.3,-17.07,-33.15,-35.07,0,*69
1513537606.65,31862,7.0,72728.8,-17.07,-32.57,-33.77,0,*6C
1513537607.95,31863,7.0,72728.3,-17.07,-31.91,-33.43,0,*63
1513537609.22,31864,7.0,72726.3,-17.07,-30.61,-32.01,0,*6D
1513537610.47,31865,7.0,72728.0,-17.09,-29.67,-30.17,0,*69
1513537611.71,31866,7.0,72734.0,-17.09,-29.67,-31.57,0,*6F
1513537612.96,31867,7.0,72726.8,-17.07,-30.27,-32.35,0,*6B
1513537614.24,31868,7.0,72724.8,-17.07,-29.73,-30.83,0,*62
1513537615.5,31869,7.0,72728.8,-17.05,-28.43,-28.75,0,*63
1513537616.75,31870,7.0,72730.3,-17.05,-27.23,-27.67,0,*6E
1513537617.97,31871,7.0,72724.0,-17.05,-25.87,-27.55,0,*62
1513537619.18,31872,7.0,72726.8,-17.05,-25.87,-29.95,0,*63
1513537620.46,31873,7.0,72724.5,-17.05,-26.97,-30.95,0,*68
1513537621.69,31874,7.0,72724.0,-17.05,-27.13,-28.75,0,*65
1513537622.94,31875,7.0,72728.8,-17.05,-26.97,-29.45,0,*6B
1513537624.19,31876,7.0,72728.5,-17.05,-27.99,-30.23,0,*6F
1513537625.43,31877,7.0,72728.3,-17.05,-27.71,-27.23,0,*6E
1513537626.67,31878,7.0,72724.8,-17.05,-25.87,-24.11,0,*68
1513537627.91,31879,7.0,72728.0,-17.05,-23.23,-22.11,0,*67
1513537629.18,31880,7.0,72726.3,-17.03,-21.87,-21.77,0,*68
1513537630.43,31881,7.0,72730.0,-17.05,-21.03,-21.47,0,*60
1513537631.67,31882,7.0,72730.3,-17.05,-20.73,-21.33,0,*66
1513537632.91,31883,7.0,72728.8,-17.01,-20.25,-22.17,0,*65
1513537634.16,31884,7.0,72728.3,-17.03,-21.43,-26.61,0,*64
1513537635.46,31885,7.0,72730.0,-17.03,-23.49,-28.63,0,*61
1513537636.72,31886,7.0,72728.3,-17.03,-23.85,-26.45,0,*68
1513537638.01,31887,7.0,72730.8,-17.03,-23.33,-24.67,0,*66
1513537639.31,31888,7.0,72728.3,-16.99,-22.21,-23.65,0,*6C
1513537640.53,31889,7.0,72730.8,-17.01,-21.77,-23.39,0,*64
1513537641.77,31890,7.0,72730.3,-17.01,-21.57,-22.57,0,*67
1513537643.04,31891,7.0,72732.3,-17.01,-21.03,-22.21,0,*66
1513537644.25,31892,7.0,72732.3,-17.01,-21.17,-22.37,0,*67
1513537645.53,31893,7.0,72730.3,-16.99,-20.99,-21.43,0,*61
1513537646.77,31894,7.0,72730.8,-16.99,-20.63,-21.09,0,*6D
1513537648.04,31895,7.0,72732.0,-16.99,-20.19,-21.09,0,*61
1513537649.33,31896,7.0,72732.0,-16.99,-20.35,-21.87,0,*6A
1513537650.58,31897,7.0,72734.3,-16.99,-20.93,-22.83,0,*60
1513537651.83,31898,7.0,72730.8,-17.01,-21.87,-23.09,0,*68
1513537653.08,31899,7.0,72730.0,-16.97,-22.17,-23.13,0,*66
1513537654.33,31900,7.0,72732.0,-16.99,-22.03,-23.13,0,*6C
1513537655.57,31901,7.0,72728.8,-16.99,-21.43,-22.07,0,*6E
1513537656.87,31902,7.0,72728.8,-16.95,-20.99,-21.83,0,*68
1513537658.1,31903,7.0,72734.3,-16.97,-20.93,-21.57,0,*68
1513537659.35,31904,7.0,72728.0,-16.97,-20.63,-21.57,0,*60
1513537660.62,31905,7.0,72730.0,-16.95,-20.63,-21.67,0,*60
1513537661.88,31906,7.0,72728.0,-16.95,-20.79,-21.73,0,*6D
1513537663.16,31907,7.0,72724.3,-16.95,-20.63,-21.27,0,*66
1513537664.41,31908,7.0,72726.8,-16.95,-20.59,-20.93,0,*6E
1513537665.66,31909,7.0,72726.8,-16.95,-20.43,-21.39,0,*65
1513537666.94,31910,7.0,72730.5,-16.95,-21.23,-22.67,0,*62
1513537668.18,31911,7.0,72728.0,-16.95,-22.37,-23.75,0,*67
1513537669.46,31912,7.0,72726.5,-16.95,-24.41,-26.45,0,*65
1513537670.71,31913,7.0,72730.3,-16.95,-28.15,-30.67,0,*6E
1513537672.0,31914,7.0,72726.5,-16.95,-30.39,-32.07,0,*6A
1513537673.3,31915,7.0,72724.8,-16.95,-31.23,-31.51,0,*61
1513537674.6,31916,7.0,72724.0,-16.95,-31.91,-32.79,0,*62
1513537675.87,31917,7.0,72726.3,-16.95,-33.49,-34.25,0,*6B
1513537677.14,31918,7.0,72724.3,-16.95,-32.69,-32.45,0,*67
1513537678.42,31919,7.0,72728.0,-16.95,-31.61,-31.01,0,*6E
1513537679.69,31920,7.0,72724.5,-16.95,-30.67,-30.17,0,*65
1513537680.96,31921,7.0,72728.0,-16.95,-29.79,-28.91,0,*64
1513537682.26,31922,7.0,72724.3,-16.95,-28.09,-28.25,0,*6E
1513537683.53,31923,7.0,72728.0,-16.95,-27.39,-27.77,0,*6B
1513537684.8,31924,7.0,72728.5,-16.91,-26.71,-26.49,0,*69
1513537686.01,31925,7.0,72722.5,-16.89,-25.23,-24.05,0,*6F
1513537687.28,31926,7.0,72722.3,-16.91,-23.53,-22.57,0,*65
1513537688.53,31927,7.0,72722.3,-16.89,-22.67,-22.77,0,*69
1513537689.77,31928,7.0,72724.8,-16.91,-22.41,-22.93,0,*61
1513537691.04,31929,7.0,72728.3,-16.91,-22.47,-23.39,0,*67
1513537692.29,31930,7.0,72724.8,-16.91,-21.77,-23.59,0,*69
1513537693.53,31931,7.0,72724.3,-16.91,-22.63,-25.19,0,*6C
1513537694.76,31932,7.0,72720.3,-16.91,-23.39,-26.49,0,*67
1513537696.02,31933,7.0,72720.5,-16.89,-24.21,-25.61,0,*68
1513537697.26,31934,7.0,72722.0,-16.91,-23.39,-23.59,0,*65
1513537698.5,31935,7.0,72724.0,-16.89,-22.11,-21.97,0,*66
1513537699.74,31936,7.0,72722.3,-16.89,-21.43,-21.33,0,*6F
1513537700.95,31937,7.0,72722.5,-16.85,-20.89,-21.43,0,*62
1513537702.2,31938,7.0,72728.8,-16.89,-21.03,-22.27,0,*63
1513537703.41,31939,7.0,72730.3,-16.89,-22.11,-24.77,0,*61
1513537704.66,31940,7.0,72728.3,-16.89,-23.49,-26.03,0,*62
1513537705.94,31941,7.0,72724.5,-16.87,-24.05,-26.33,0,*61
1513537707.19,31942,7.0,72726.5,-16.87,-24.35,-27.29,0,*6B
1513537708.45,31943,7.0,72730.0,-16.85,-24.87,-28.21,0,*66
1513537709.75,31944,7.0,72726.5,-16.87,-25.75,-31.85,0,*69